Weather History for Massena, NY

Change the Weather History Date:

Sunday, February 17, 2013

  Actual Average Record
Temperature  
Mean Temperature 7 °F 18 °F  
Max Temperature 13 °F 29 °F 47 °F (1981)
Min Temperature 1 °F 8 °F -29 °F (1973)
Degree Days  
Heating Degree Days 58 47  
Month to date heating degree days 865 827  
Since 1 July heating degree days 5073 5490  
Moisture  
Dew Point -2 °F    
Average Humidity 73    
Maximum Humidity 87    
Minimum Humidity 58    
Precipitation  
Precipitation 0.00 in 0.06 in 0.60 in (1954)
Month to date precipitation 0.10 1.02  
Year to date precipitation 1.54 3.20  
Sea Level Pressure  
Sea Level Pressure 29.96 in    
Wind  
Wind Speed 11 mph (WNW)    
Max Wind Speed 21 mph    
Max Gust Speed 26 mph    
Visibility 10 miles    
Events      
T = Trace of Precipitation, MM = Missing Value Source: NWS Daily Summary

Daily Weather History Graph

Daily Weather History Graph

Search for Another Location

Airport:

Trip Planner

Search our weather history database for the weather conditions in past years. The results will help you decide how hot, cold, wet, or windy it might be!

Date:

Astronomy

Feb. 17, 2013 Rise Set
Actual Time 6:56 AM EST 5:30 PM EST
Civil Twilight 6:26 AM EST 6:00 PM EST
Nautical Twilight 5:52 AM EST 6:34 PM EST
Astronomical Twilight 5:18 AM EST 7:08 PM EST
Moon 10:27 AM EST (2/17) 12:44 AM EST (2/17)
Length of Visible Light 11h 33m
Length of Day
10h 33m
Waxing Crescent, 49% of the Moon is Illuminated
Feb 17
Waxing Crescent
Feb 17
First Quarter
Feb 25
Full
Mar 4
Last Quarter
Mar 11
New

Hourly Weather History & Observations

Time (EST) Temp. Windchill Dew Point Humidity Pressure Visibility Wind Dir Wind Speed Gust Speed Precip Events Conditions
12:53 AM 3.9 °F - -0.9 °F 80% 30.01 in 10.0 mi Calm Calm - N/A   Clear
1:53 AM 7.0 °F 0.1 °F -0.0 °F 73% 30.00 in 10.0 mi NNW 3.5 mph - N/A   Clear
2:53 AM 7.0 °F -1.7 °F -0.0 °F 73% 29.98 in 10.0 mi NW 4.6 mph - N/A   Clear
3:53 AM 3.9 °F -6.9 °F -2.0 °F 76% 29.97 in 10.0 mi NW 5.8 mph - N/A   Clear
4:53 AM 3.9 °F -9.4 °F -2.0 °F 76% 29.98 in 10.0 mi WNW 8.1 mph - N/A   Clear
5:53 AM 1.9 °F -14.7 °F -2.9 °F 80% 29.97 in 10.0 mi WNW 11.5 mph - N/A   Clear
6:53 AM 1.9 °F -13.8 °F -4.0 °F 76% 29.97 in 10.0 mi NW 10.4 mph - N/A   Clear
7:53 AM 1.0 °F -10.3 °F -4.0 °F 79% 29.98 in 10.0 mi WNW 5.8 mph - N/A   Clear
8:53 AM 3.0 °F -12.5 °F -2.0 °F 80% 29.96 in 10.0 mi WNW 10.4 mph 17.3 mph N/A   Clear
9:53 AM 5.0 °F -12.3 °F -2.9 °F 70% 29.94 in 10.0 mi NW 13.8 mph - N/A   Clear
10:53 AM 7.0 °F -8.3 °F -2.0 °F 67% 29.94 in 10.0 mi WNW 11.5 mph - N/A   Clear
11:53 AM 8.1 °F -7.0 °F -0.9 °F 67% 29.92 in 10.0 mi WNW 11.5 mph - N/A   Clear
12:53 PM 10.0 °F -6.5 °F -0.9 °F 61% 29.90 in 10.0 mi West 15.0 mph - N/A   Clear
1:53 PM 10.9 °F -5.4 °F -0.9 °F 59% 29.90 in 10.0 mi West 15.0 mph 20.7 mph N/A   Clear
2:53 PM 12.0 °F -2.7 °F -0.0 °F 59% 29.91 in 10.0 mi West 12.7 mph 20.7 mph N/A   Clear
3:53 PM 12.0 °F -5.6 °F -0.9 °F 56% 29.91 in 10.0 mi West 18.4 mph 25.3 mph N/A   Clear
4:53 PM 10.9 °F -5.9 °F -2.0 °F 56% 29.92 in 10.0 mi West 16.1 mph 21.9 mph N/A   Clear
5:53 PM 10.9 °F -5.9 °F -2.0 °F 56% 29.94 in 10.0 mi West 16.1 mph 23.0 mph N/A   Clear
6:53 PM 10.0 °F -7.1 °F -2.0 °F 58% 29.96 in 10.0 mi West 16.1 mph 21.9 mph N/A   Clear
7:53 PM 10.0 °F -5.9 °F -2.0 °F 58% 29.98 in 10.0 mi West 13.8 mph 20.7 mph N/A   Clear
8:53 PM 9.0 °F -5.1 °F -2.0 °F 61% 30.01 in 10.0 mi West 10.4 mph 19.6 mph N/A   Clear
9:53 PM 8.1 °F -7.0 °F -2.0 °F 64% 30.02 in 10.0 mi West 11.5 mph - N/A   Partly Cloudy
10:53 PM 7.0 °F -7.5 °F -2.9 °F 64% 30.04 in 10.0 mi West 10.4 mph 19.6 mph N/A   Partly Cloudy